Year,Month,Day,Hour,Minute,Value (Times are PST for temperature in C)
2008,03,28,00,00,4.70
2008,03,28,00,01,4.70
2008,03,28,00,02,4.70
2008,03,28,00,03,4.70
2008,03,28,00,04,4.70
2008,03,28,00,05,4.70
2008,03,28,00,06,4.70
2008,03,28,00,07,4.70
2008,03,28,00,08,4.70
2008,03,28,00,09,4.70
2008,03,28,00,10,4.80
2008,03,28,00,11,4.80
2008,03,28,00,12,4.80
2008,03,28,00,13,4.80
2008,03,28,00,14,4.80
2008,03,28,00,15,4.80
2008,03,28,00,16,4.80
2008,03,28,00,17,4.80
2008,03,28,00,18,4.80
2008,03,28,00,19,4.90
2008,03,28,00,20,4.90
2008,03,28,00,21,4.90
2008,03,28,00,22,4.90
2008,03,28,00,23,4.90
2008,03,28,00,24,4.90
2008,03,28,00,25,4.90
2008,03,28,00,26,4.90
2008,03,28,00,27,4.90
2008,03,28,00,28,4.90
2008,03,28,00,29,4.90
2008,03,28,00,30,4.90
2008,03,28,00,31,4.90
2008,03,28,00,32,4.90
2008,03,28,00,33,4.90
2008,03,28,00,34,4.90
2008,03,28,00,35,4.90
2008,03,28,00,36,4.90
2008,03,28,00,37,4.90
2008,03,28,00,38,4.80
2008,03,28,00,39,4.80
2008,03,28,00,40,4.80
2008,03,28,00,41,4.80
2008,03,28,00,42,4.80
2008,03,28,00,43,4.70
2008,03,28,00,44,4.70
2008,03,28,00,45,4.70
2008,03,28,00,46,4.80
2008,03,28,00,47,4.80
2008,03,28,00,48,4.70
2008,03,28,00,49,4.70
2008,03,28,00,50,4.70
2008,03,28,00,51,4.70
2008,03,28,00,52,4.70
2008,03,28,00,53,4.70
2008,03,28,00,54,4.60
2008,03,28,00,55,4.60
2008,03,28,00,56,4.60
2008,03,28,00,57,4.60
2008,03,28,00,58,4.60
2008,03,28,00,59,4.60
2008,03,28,01,00,4.60
2008,03,28,01,01,4.60
2008,03,28,01,02,4.60
2008,03,28,01,03,4.60
2008,03,28,01,04,4.60
2008,03,28,01,05,4.60
2008,03,28,01,06,4.60
2008,03,28,01,07,4.60
2008,03,28,01,08,4.50
2008,03,28,01,09,4.50
2008,03,28,01,10,4.50
2008,03,28,01,11,4.50
2008,03,28,01,12,4.40
2008,03,28,01,13,4.40
2008,03,28,01,14,4.40
2008,03,28,01,15,4.40
2008,03,28,01,16,4.40
2008,03,28,01,17,4.40
2008,03,28,01,18,4.40
2008,03,28,01,19,4.40
2008,03,28,01,20,4.40
2008,03,28,01,21,4.40
2008,03,28,01,22,4.40
2008,03,28,01,23,4.40
2008,03,28,01,24,4.40
2008,03,28,01,25,4.40
2008,03,28,01,26,4.40
2008,03,28,01,27,4.40
2008,03,28,01,28,4.40
2008,03,28,01,29,4.40
2008,03,28,01,30,4.40
2008,03,28,01,31,4.40
2008,03,28,01,32,4.30
2008,03,28,01,33,4.30
2008,03,28,01,34,4.30
2008,03,28,01,35,4.30
2008,03,28,01,36,4.30
2008,03,28,01,37,4.30
2008,03,28,01,38,4.30
2008,03,28,01,39,4.20
2008,03,28,01,40,4.20
2008,03,28,01,41,4.20
2008,03,28,01,42,4.30
2008,03,28,01,43,4.30
2008,03,28,01,44,4.30
2008,03,28,01,45,4.30
2008,03,28,01,46,4.30
2008,03,28,01,47,4.30
2008,03,28,01,48,4.30
2008,03,28,01,49,4.30
2008,03,28,01,50,4.30
2008,03,28,01,51,4.30
2008,03,28,01,52,4.30
2008,03,28,01,53,4.30
2008,03,28,01,54,4.20
2008,03,28,01,55,4.20
2008,03,28,01,56,4.20
2008,03,28,01,57,4.20
2008,03,28,01,58,4.20
2008,03,28,01,59,4.20
2008,03,28,02,00,4.30
2008,03,28,02,01,4.30
2008,03,28,02,02,4.30
2008,03,28,02,03,4.30
2008,03,28,02,04,4.30
2008,03,28,02,05,4.20
2008,03,28,02,06,4.20
2008,03,28,02,07,4.20
2008,03,28,02,08,4.20
2008,03,28,02,09,4.20
2008,03,28,02,10,4.30
2008,03,28,02,11,4.30
2008,03,28,02,12,4.30
2008,03,28,02,13,4.30
2008,03,28,02,14,4.30
2008,03,28,02,15,4.30
2008,03,28,02,16,4.30
2008,03,28,02,17,4.30
2008,03,28,02,18,4.30
2008,03,28,02,19,4.30
2008,03,28,02,20,4.20
2008,03,28,02,21,4.20
2008,03,28,02,22,4.20
2008,03,28,02,23,4.20
2008,03,28,02,24,4.20
2008,03,28,02,25,4.20
2008,03,28,02,26,4.20
2008,03,28,02,27,4.20
2008,03,28,02,28,4.20
2008,03,28,02,29,4.20
2008,03,28,02,30,4.20
2008,03,28,02,31,4.20
2008,03,28,02,32,4.20
2008,03,28,02,33,4.20
2008,03,28,02,34,4.20
2008,03,28,02,35,4.20
2008,03,28,02,36,4.20
2008,03,28,02,37,4.20
2008,03,28,02,38,4.10
2008,03,28,02,39,4.10
2008,03,28,02,40,4.10
2008,03,28,02,41,4.10
2008,03,28,02,42,4.10
2008,03,28,02,43,4.10
2008,03,28,02,44,4.10
2008,03,28,02,45,4.00
2008,03,28,02,46,4.00
2008,03,28,02,47,4.00
2008,03,28,02,48,4.00
2008,03,28,02,49,3.90
2008,03,28,02,50,3.90
2008,03,28,02,51,3.90
2008,03,28,02,52,3.90
2008,03,28,02,53,3.90
2008,03,28,02,54,3.90
2008,03,28,02,55,3.90
2008,03,28,02,56,3.90
2008,03,28,02,57,3.90
2008,03,28,02,58,3.90
2008,03,28,02,59,3.90
2008,03,28,03,00,3.90
2008,03,28,03,01,3.90
2008,03,28,03,02,3.80
2008,03,28,03,03,3.90
2008,03,28,03,04,3.90
2008,03,28,03,05,3.90
2008,03,28,03,06,3.90
2008,03,28,03,07,3.90
2008,03,28,03,08,3.90
2008,03,28,03,09,3.90
2008,03,28,03,10,3.80
2008,03,28,03,11,3.80
2008,03,28,03,12,3.80
2008,03,28,03,13,3.80
2008,03,28,03,14,3.80
2008,03,28,03,15,3.80
2008,03,28,03,16,3.80
2008,03,28,03,17,3.80
2008,03,28,03,18,3.80
2008,03,28,03,19,3.80
2008,03,28,03,20,3.80
2008,03,28,03,21,3.80
2008,03,28,03,22,3.80
2008,03,28,03,23,3.80
2008,03,28,03,24,3.80
2008,03,28,03,25,3.80
2008,03,28,03,26,3.80
2008,03,28,03,27,3.80
2008,03,28,03,28,3.80
2008,03,28,03,29,3.80
2008,03,28,03,30,3.80
2008,03,28,03,31,3.80
2008,03,28,03,32,3.80
2008,03,28,03,33,3.80
2008,03,28,03,34,3.80
2008,03,28,03,35,3.80
2008,03,28,03,36,3.80
2008,03,28,03,37,3.80
2008,03,28,03,38,3.80
2008,03,28,03,39,3.80
2008,03,28,03,40,3.80
2008,03,28,03,41,3.80
2008,03,28,03,42,3.80
2008,03,28,03,43,3.80
2008,03,28,03,44,3.80
2008,03,28,03,45,3.80
2008,03,28,03,46,3.80
2008,03,28,03,47,3.80
2008,03,28,03,48,3.80
2008,03,28,03,49,3.80
2008,03,28,03,50,3.80
2008,03,28,03,51,3.80
2008,03,28,03,52,3.80
2008,03,28,03,53,3.80
2008,03,28,03,54,3.80
2008,03,28,03,55,3.80
2008,03,28,03,56,3.80
2008,03,28,03,57,3.80
2008,03,28,03,58,3.80
2008,03,28,03,59,3.80
2008,03,28,04,00,3.80
2008,03,28,04,01,3.80
2008,03,28,04,02,3.90
2008,03,28,04,03,3.90
2008,03,28,04,04,3.90
2008,03,28,04,05,3.90
2008,03,28,04,06,3.90
2008,03,28,04,07,3.90
2008,03,28,04,08,3.90
2008,03,28,04,09,3.90
2008,03,28,04,10,3.90
2008,03,28,04,11,3.90
2008,03,28,04,12,3.90
2008,03,28,04,13,3.90
2008,03,28,04,14,3.90
2008,03,28,04,15,3.90
2008,03,28,04,16,3.90
2008,03,28,04,17,3.90
2008,03,28,04,18,3.90
2008,03,28,04,19,3.80
2008,03,28,04,20,3.80
2008,03,28,04,21,3.90
2008,03,28,04,22,3.90
2008,03,28,04,23,3.90
2008,03,28,04,24,3.90
2008,03,28,04,25,3.90
2008,03,28,04,26,3.90
2008,03,28,04,27,3.90
2008,03,28,04,28,3.90
2008,03,28,04,29,3.90
2008,03,28,04,30,3.90
2008,03,28,04,31,3.90
2008,03,28,04,32,3.90
2008,03,28,04,33,3.90
2008,03,28,04,34,3.90
2008,03,28,04,35,3.90
2008,03,28,04,36,3.90
2008,03,28,04,37,3.90
2008,03,28,04,38,3.90
2008,03,28,04,39,3.90
2008,03,28,04,40,3.90
2008,03,28,04,41,3.90
2008,03,28,04,42,3.90
2008,03,28,04,43,3.90
2008,03,28,04,44,3.90
2008,03,28,04,45,3.90
2008,03,28,04,46,3.90
2008,03,28,04,47,3.90
2008,03,28,04,48,3.90
2008,03,28,04,49,3.90
2008,03,28,04,50,3.90
2008,03,28,04,51,3.90
2008,03,28,04,52,3.90
2008,03,28,04,53,3.90
2008,03,28,04,54,3.90
2008,03,28,04,55,3.90
2008,03,28,04,56,3.90
2008,03,28,04,57,3.80
2008,03,28,04,58,3.80
2008,03,28,04,59,3.80
2008,03,28,05,00,3.80
2008,03,28,05,01,3.80
2008,03,28,05,02,3.80
2008,03,28,05,03,3.80
2008,03,28,05,04,3.80
2008,03,28,05,05,3.80
2008,03,28,05,06,3.80
2008,03,28,05,07,3.80
2008,03,28,05,08,3.80
2008,03,28,05,09,3.80
2008,03,28,05,10,3.80
2008,03,28,05,11,3.80
2008,03,28,05,12,3.80
2008,03,28,05,13,3.70
2008,03,28,05,14,3.70
2008,03,28,05,15,3.70
2008,03,28,05,16,3.70
2008,03,28,05,17,3.70
2008,03,28,05,18,3.70
2008,03,28,05,19,3.70
2008,03,28,05,20,3.70
2008,03,28,05,21,3.60
2008,03,28,05,22,3.60
2008,03,28,05,23,3.60
2008,03,28,05,24,3.60
2008,03,28,05,25,3.60
2008,03,28,05,26,3.60
2008,03,28,05,27,3.60
2008,03,28,05,28,3.60
2008,03,28,05,29,3.60
2008,03,28,05,30,3.60
2008,03,28,05,31,3.60
2008,03,28,05,32,3.60
2008,03,28,05,33,3.60
2008,03,28,05,34,3.60
2008,03,28,05,35,3.60
2008,03,28,05,36,3.60
2008,03,28,05,37,3.60
2008,03,28,05,38,3.60
2008,03,28,05,39,3.60
2008,03,28,05,40,3.60
2008,03,28,05,41,3.60
2008,03,28,05,42,3.60
2008,03,28,05,43,3.50
2008,03,28,05,44,3.50
2008,03,28,05,45,3.50
2008,03,28,05,46,3.50
2008,03,28,05,47,3.50
2008,03,28,05,48,3.50
2008,03,28,05,49,3.50
2008,03,28,05,50,3.50
2008,03,28,05,51,3.50
2008,03,28,05,52,3.50
2008,03,28,05,53,3.50
2008,03,28,05,54,3.50
2008,03,28,05,55,3.50
2008,03,28,05,56,3.50
2008,03,28,05,57,3.50
2008,03,28,05,58,3.50
2008,03,28,05,59,3.50
2008,03,28,06,00,3.50
2008,03,28,06,01,3.50
2008,03,28,06,02,3.50
2008,03,28,06,03,3.50
2008,03,28,06,04,3.50
2008,03,28,06,05,3.50
2008,03,28,06,06,3.50
2008,03,28,06,07,3.50
2008,03,28,06,08,3.40
2008,03,28,06,09,3.40
2008,03,28,06,10,3.30
2008,03,28,06,11,3.30
2008,03,28,06,12,3.30
2008,03,28,06,13,3.20
2008,03,28,06,14,3.20
2008,03,28,06,15,3.20
2008,03,28,06,16,3.10
2008,03,28,06,17,3.10
2008,03,28,06,18,3.10
2008,03,28,06,19,3.10
2008,03,28,06,20,3.00
2008,03,28,06,21,2.90
2008,03,28,06,22,2.90
2008,03,28,06,23,2.90
2008,03,28,06,24,2.90
2008,03,28,06,25,2.80
2008,03,28,06,26,2.80
2008,03,28,06,27,2.80
2008,03,28,06,28,2.80
2008,03,28,06,29,2.80
2008,03,28,06,30,2.80
2008,03,28,06,31,2.80
2008,03,28,06,32,2.80
2008,03,28,06,33,2.80
2008,03,28,06,34,2.80
2008,03,28,06,35,2.80
2008,03,28,06,36,2.80
2008,03,28,06,37,2.80
2008,03,28,06,38,2.80
2008,03,28,06,39,2.80
2008,03,28,06,40,2.80
2008,03,28,06,41,2.80
2008,03,28,06,42,2.80
2008,03,28,06,43,2.80
2008,03,28,06,44,2.80
2008,03,28,06,45,2.70
2008,03,28,06,46,2.70
2008,03,28,06,47,2.70
2008,03,28,06,48,2.70
2008,03,28,06,49,2.70
2008,03,28,06,50,2.80
2008,03,28,06,51,2.80
2008,03,28,06,52,2.80
2008,03,28,06,53,2.80
2008,03,28,06,54,2.80
2008,03,28,06,55,2.80
2008,03,28,06,56,2.80
2008,03,28,06,57,2.80
2008,03,28,06,58,2.80
2008,03,28,06,59,2.80
2008,03,28,07,00,2.80
2008,03,28,07,01,2.80
2008,03,28,07,02,2.80
2008,03,28,07,03,2.80
2008,03,28,07,04,2.80
2008,03,28,07,05,2.80
2008,03,28,07,06,2.80
2008,03,28,07,07,2.80
2008,03,28,07,08,2.80
2008,03,28,07,09,2.80
2008,03,28,07,10,2.80
2008,03,28,07,11,2.80
2008,03,28,07,12,2.80
2008,03,28,07,13,2.80
2008,03,28,07,14,2.80
2008,03,28,07,15,2.80
2008,03,28,07,16,2.80
2008,03,28,07,17,2.80
2008,03,28,07,18,2.80
2008,03,28,07,19,2.80
2008,03,28,07,20,2.80
2008,03,28,07,21,2.80
2008,03,28,07,22,2.80
2008,03,28,07,23,2.80
2008,03,28,07,24,2.80
2008,03,28,07,25,2.80
2008,03,28,07,26,2.80
2008,03,28,07,27,2.80
2008,03,28,07,28,2.90
2008,03,28,07,29,2.90
2008,03,28,07,30,2.90
2008,03,28,07,31,2.90
2008,03,28,07,32,2.90
2008,03,28,07,33,2.90
2008,03,28,07,34,2.90
2008,03,28,07,35,2.90
2008,03,28,07,36,2.90
2008,03,28,07,37,2.80
2008,03,28,07,38,2.90
2008,03,28,07,39,2.80
2008,03,28,07,40,2.80
2008,03,28,07,41,2.80
2008,03,28,07,42,2.80
2008,03,28,07,43,2.80
2008,03,28,07,44,2.80
2008,03,28,07,45,2.80
2008,03,28,07,46,2.80
2008,03,28,07,47,2.80
2008,03,28,07,48,2.80
2008,03,28,07,49,2.80
2008,03,28,07,50,2.80
2008,03,28,07,51,2.80
2008,03,28,07,52,2.80
2008,03,28,07,53,2.80
2008,03,28,07,54,2.80
2008,03,28,07,55,2.80
2008,03,28,07,56,2.80
2008,03,28,07,57,2.80
2008,03,28,07,58,2.80
2008,03,28,07,59,2.80
2008,03,28,08,00,2.90
2008,03,28,08,01,2.90
2008,03,28,08,02,2.90
2008,03,28,08,03,2.90
2008,03,28,08,04,2.90
2008,03,28,08,05,2.90
2008,03,28,08,06,2.90
2008,03,28,08,07,2.90
2008,03,28,08,08,2.90
2008,03,28,08,09,2.90
2008,03,28,08,10,2.90
2008,03,28,08,11,2.90
2008,03,28,08,12,2.90
2008,03,28,08,13,2.90
2008,03,28,08,14,2.90
2008,03,28,08,15,2.90
2008,03,28,08,16,3.00
2008,03,28,08,17,3.00
2008,03,28,08,18,3.00
2008,03,28,08,19,3.00
2008,03,28,08,20,3.10
2008,03,28,08,21,3.10
2008,03,28,08,22,3.10
2008,03,28,08,23,3.10
2008,03,28,08,24,3.10
2008,03,28,08,25,3.10
2008,03,28,08,26,3.20
2008,03,28,08,27,3.20
2008,03,28,08,28,3.20
2008,03,28,08,29,3.20
2008,03,28,08,30,3.20
2008,03,28,08,31,3.20
2008,03,28,08,32,3.20
2008,03,28,08,33,3.20
2008,03,28,08,34,3.20
2008,03,28,08,35,3.20
2008,03,28,08,36,3.20
2008,03,28,08,37,3.20
2008,03,28,08,38,3.20
2008,03,28,08,39,3.20
2008,03,28,08,40,3.20
2008,03,28,08,41,3.30
2008,03,28,08,42,3.30
2008,03,28,08,43,3.30
2008,03,28,08,44,3.30
2008,03,28,08,45,3.30
2008,03,28,08,46,3.30
2008,03,28,08,47,3.30
2008,03,28,08,48,3.20
2008,03,28,08,49,3.30
2008,03,28,08,50,3.20
2008,03,28,08,51,3.20
2008,03,28,08,52,3.20
2008,03,28,08,53,3.20
2008,03,28,08,54,3.30
2008,03,28,08,55,3.30
2008,03,28,08,56,3.30
2008,03,28,08,57,3.30
2008,03,28,08,58,3.30
2008,03,28,08,59,3.30
2008,03,28,09,00,3.30
2008,03,28,09,01,3.30
2008,03,28,09,02,3.30
2008,03,28,09,03,3.30
2008,03,28,09,04,3.30
2008,03,28,09,05,3.30
2008,03,28,09,06,3.30
2008,03,28,09,07,3.30
2008,03,28,09,08,3.30
2008,03,28,09,09,3.40
2008,03,28,09,10,3.40
2008,03,28,09,11,3.40
2008,03,28,09,12,3.40
2008,03,28,09,13,3.40
2008,03,28,09,14,3.40
2008,03,28,09,15,3.40
2008,03,28,09,16,3.30
2008,03,28,09,17,3.30
2008,03,28,09,18,3.20
2008,03,28,09,19,3.20
2008,03,28,09,20,3.20
2008,03,28,09,21,3.20
2008,03,28,09,22,3.20
2008,03,28,09,23,3.20
2008,03,28,09,24,3.30
2008,03,28,09,25,3.30
2008,03,28,09,26,3.40
2008,03,28,09,27,3.50
2008,03,28,09,28,3.60
2008,03,28,09,29,3.70
2008,03,28,09,30,3.90
2008,03,28,09,31,3.90
2008,03,28,09,32,3.90
2008,03,28,09,33,3.90
2008,03,28,09,34,3.90
2008,03,28,09,35,3.80
2008,03,28,09,36,3.80
2008,03,28,09,37,3.80
2008,03,28,09,38,3.80
2008,03,28,09,39,3.80
2008,03,28,09,40,3.80
2008,03,28,09,41,3.80
2008,03,28,09,42,3.70
2008,03,28,09,43,3.70
2008,03,28,09,44,3.70
2008,03,28,09,45,3.70
2008,03,28,09,46,3.70
2008,03,28,09,47,3.60
2008,03,28,09,48,3.60
2008,03,28,09,49,3.50
2008,03,28,09,50,3.50
2008,03,28,09,51,3.50
2008,03,28,09,52,3.40
2008,03,28,09,53,3.30
2008,03,28,09,54,3.30
2008,03,28,09,55,3.20
2008,03,28,09,56,3.10
2008,03,28,09,57,3.00
2008,03,28,09,58,2.90
2008,03,28,09,59,2.90
2008,03,28,10,00,2.80
2008,03,28,10,01,2.80
2008,03,28,10,02,2.80
2008,03,28,10,03,2.80
2008,03,28,10,04,2.80
2008,03,28,10,05,2.70
2008,03,28,10,06,2.70
2008,03,28,10,07,2.70
2008,03,28,10,08,2.70
2008,03,28,10,09,2.70
2008,03,28,10,10,2.70
2008,03,28,10,11,2.80
2008,03,28,10,12,2.80
2008,03,28,10,13,2.80
2008,03,28,10,14,2.80
2008,03,28,10,15,2.80
2008,03,28,10,16,2.80
2008,03,28,10,17,2.90
2008,03,28,10,18,2.90
2008,03,28,10,19,2.90
2008,03,28,10,20,2.90
2008,03,28,10,21,3.00
2008,03,28,10,22,3.00
2008,03,28,10,23,3.10
2008,03,28,10,24,3.10
2008,03,28,10,25,3.10
2008,03,28,10,26,3.20
2008,03,28,10,27,3.20
2008,03,28,10,28,3.30
2008,03,28,10,29,3.30
2008,03,28,10,30,3.30
2008,03,28,10,31,3.30
2008,03,28,10,32,3.30
2008,03,28,10,33,3.30
2008,03,28,10,34,3.30
2008,03,28,10,35,3.30
2008,03,28,10,36,3.30
2008,03,28,10,37,3.30
2008,03,28,10,38,3.30
2008,03,28,10,39,3.30
2008,03,28,10,40,3.30
2008,03,28,10,41,3.30
2008,03,28,10,42,3.30
2008,03,28,10,43,3.30
2008,03,28,10,44,3.40
2008,03,28,10,45,3.40
2008,03,28,10,46,3.40
2008,03,28,10,47,3.40
2008,03,28,10,48,3.50
2008,03,28,10,49,3.50
2008,03,28,10,50,3.50
2008,03,28,10,51,3.50
2008,03,28,10,52,3.60
2008,03,28,10,53,3.70
2008,03,28,10,54,3.70
2008,03,28,10,55,3.70
2008,03,28,10,56,3.70
2008,03,28,10,57,3.80
2008,03,28,10,58,3.80
2008,03,28,10,59,3.80
2008,03,28,11,00,3.80
2008,03,28,11,01,3.90
2008,03,28,11,02,3.90
2008,03,28,11,03,3.90
2008,03,28,11,04,3.90
2008,03,28,11,05,3.90
2008,03,28,11,06,3.80
2008,03,28,11,07,3.80
2008,03,28,11,08,3.80
2008,03,28,11,09,3.80
2008,03,28,11,10,3.70
2008,03,28,11,11,3.70
2008,03,28,11,12,3.70
2008,03,28,11,13,3.70
2008,03,28,11,14,3.70
2008,03,28,11,15,3.60
2008,03,28,11,16,3.60
2008,03,28,11,17,3.50
2008,03,28,11,18,3.50
2008,03,28,11,19,3.40
2008,03,28,11,20,3.40
2008,03,28,11,21,3.40
2008,03,28,11,22,3.40
2008,03,28,11,23,3.50
2008,03,28,11,24,3.50
2008,03,28,11,25,3.60
2008,03,28,11,26,3.60
2008,03,28,11,27,3.70
2008,03,28,11,28,3.60
2008,03,28,11,29,3.60
2008,03,28,11,30,3.60
2008,03,28,11,31,3.60
2008,03,28,11,32,3.60
2008,03,28,11,33,3.70
2008,03,28,11,34,3.70
2008,03,28,11,35,3.70
2008,03,28,11,36,3.80
2008,03,28,11,37,3.80
2008,03,28,11,38,3.80
2008,03,28,11,39,3.80
2008,03,28,11,40,3.80
2008,03,28,11,41,3.90
2008,03,28,11,42,3.90
2008,03,28,11,43,3.90
2008,03,28,11,44,3.90
2008,03,28,11,45,4.00
2008,03,28,11,46,4.00
2008,03,28,11,47,4.00
2008,03,28,11,48,4.10
2008,03,28,11,49,4.10
2008,03,28,11,50,4.10
2008,03,28,11,51,4.10
2008,03,28,11,52,4.10
2008,03,28,11,53,4.10
2008,03,28,11,54,4.10
2008,03,28,11,55,4.10
2008,03,28,11,56,4.10
2008,03,28,11,57,4.10
2008,03,28,11,58,4.10
2008,03,28,11,59,4.20
2008,03,28,12,00,4.20
2008,03,28,12,01,4.20
2008,03,28,12,02,4.20
2008,03,28,12,03,4.10
2008,03,28,12,04,4.10
2008,03,28,12,05,4.10
2008,03,28,12,06,4.20
2008,03,28,12,07,4.20
2008,03,28,12,08,4.30
2008,03,28,12,09,4.30
2008,03,28,12,10,4.20
2008,03,28,12,11,4.20
2008,03,28,12,12,4.20
2008,03,28,12,13,4.30
2008,03,28,12,14,4.30
2008,03,28,12,15,4.30
2008,03,28,12,16,4.30
2008,03,28,12,17,4.30
2008,03,28,12,18,4.30
2008,03,28,12,19,4.30
2008,03,28,12,20,4.30
2008,03,28,12,21,4.30
2008,03,28,12,22,4.30
2008,03,28,12,23,4.30
2008,03,28,12,24,4.30
2008,03,28,12,25,4.30
2008,03,28,12,26,4.30
2008,03,28,12,27,4.30
2008,03,28,12,28,4.20
2008,03,28,12,29,4.20
2008,03,28,12,30,4.20
2008,03,28,12,31,4.20
2008,03,28,12,32,4.20
2008,03,28,12,33,4.20
2008,03,28,12,34,4.20
2008,03,28,12,35,4.20
2008,03,28,12,36,4.30
2008,03,28,12,37,4.30
2008,03,28,12,38,4.30
2008,03,28,12,39,4.30
2008,03,28,12,40,4.30
2008,03,28,12,41,4.30
2008,03,28,12,42,4.30
2008,03,28,12,43,4.30
2008,03,28,12,44,4.20
2008,03,28,12,45,4.20
2008,03,28,12,46,4.20
2008,03,28,12,47,4.30
2008,03,28,12,48,4.30
2008,03,28,12,49,4.30
2008,03,28,12,50,4.30
2008,03,28,12,51,4.30
2008,03,28,12,52,4.30
2008,03,28,12,53,4.30
2008,03,28,12,54,4.30
2008,03,28,12,55,4.30
2008,03,28,12,56,4.40
2008,03,28,12,57,4.40
2008,03,28,12,58,4.50
2008,03,28,12,59,4.50
2008,03,28,13,00,4.50
2008,03,28,13,01,4.50
2008,03,28,13,02,4.50
2008,03,28,13,03,4.50
2008,03,28,13,04,4.40
2008,03,28,13,05,4.40
2008,03,28,13,06,4.40
2008,03,28,13,07,4.40
2008,03,28,13,08,4.50
2008,03,28,13,09,4.50
2008,03,28,13,10,4.50
2008,03,28,13,11,4.60
2008,03,28,13,12,4.60
2008,03,28,13,13,4.60
2008,03,28,13,14,4.60
2008,03,28,13,15,4.60
2008,03,28,13,16,4.60
2008,03,28,13,17,4.60
2008,03,28,13,18,4.60
2008,03,28,13,19,4.60
2008,03,28,13,20,4.60
2008,03,28,13,21,4.60
2008,03,28,13,22,4.60
2008,03,28,13,23,4.60
2008,03,28,13,24,4.70
2008,03,28,13,25,4.70
2008,03,28,13,26,4.70
2008,03,28,13,27,4.70
2008,03,28,13,28,4.70
2008,03,28,13,29,4.80
2008,03,28,13,30,4.80
2008,03,28,13,31,4.80
2008,03,28,13,32,4.80
2008,03,28,13,33,4.80
2008,03,28,13,34,4.90
2008,03,28,13,35,4.90
2008,03,28,13,36,5.00
2008,03,28,13,37,5.00
2008,03,28,13,38,5.00
2008,03,28,13,39,5.00
2008,03,28,13,40,5.10
2008,03,28,13,41,5.10
2008,03,28,13,42,5.10
2008,03,28,13,43,5.10
2008,03,28,13,44,5.00
2008,03,28,13,45,5.00
2008,03,28,13,46,5.00
2008,03,28,13,47,5.00
2008,03,28,13,48,5.00
2008,03,28,13,49,5.10
2008,03,28,13,50,5.10
2008,03,28,13,51,5.10
2008,03,28,13,52,5.10
2008,03,28,13,53,5.10
2008,03,28,13,54,5.10
2008,03,28,13,55,5.10
2008,03,28,13,56,5.10
2008,03,28,13,57,5.00
2008,03,28,13,58,5.00
2008,03,28,13,59,5.00
2008,03,28,14,00,5.00
2008,03,28,14,01,5.00
2008,03,28,14,02,5.00
2008,03,28,14,03,4.90
2008,03,28,14,04,4.80
2008,03,28,14,05,4.80
2008,03,28,14,06,4.80
2008,03,28,14,07,4.70
2008,03,28,14,08,4.70
2008,03,28,14,09,4.60
2008,03,28,14,10,4.60
2008,03,28,14,11,4.50
2008,03,28,14,12,4.50
2008,03,28,14,13,4.40
2008,03,28,14,14,4.40
2008,03,28,14,15,4.40
2008,03,28,14,16,4.40
2008,03,28,14,17,4.30
2008,03,28,14,18,4.30
2008,03,28,14,19,4.30
2008,03,28,14,20,4.40
2008,03,28,14,21,4.40
2008,03,28,14,22,4.40
2008,03,28,14,23,4.40
2008,03,28,14,24,4.40
2008,03,28,14,25,4.40
2008,03,28,14,26,4.40
2008,03,28,14,27,4.40
2008,03,28,14,28,4.50
2008,03,28,14,29,4.50
2008,03,28,14,30,4.60
2008,03,28,14,31,4.60
2008,03,28,14,32,4.50
2008,03,28,14,33,4.50
2008,03,28,14,34,4.50
2008,03,28,14,35,4.50
2008,03,28,14,36,4.60
2008,03,28,14,37,4.60
2008,03,28,14,38,4.50
2008,03,28,14,39,4.50
2008,03,28,14,40,4.40
2008,03,28,14,41,4.40
2008,03,28,14,42,4.40
2008,03,28,14,43,4.40
2008,03,28,14,44,4.40
2008,03,28,14,45,4.30
2008,03,28,14,46,4.30
2008,03,28,14,47,4.30
2008,03,28,14,48,4.30
2008,03,28,14,49,4.30
2008,03,28,14,50,4.30
2008,03,28,14,51,4.30
2008,03,28,14,52,4.30
2008,03,28,14,53,4.30
2008,03,28,14,54,4.30
2008,03,28,14,55,4.20
2008,03,28,14,56,4.20
2008,03,28,14,57,4.10
2008,03,28,14,58,4.00
2008,03,28,14,59,4.00
2008,03,28,15,00,4.00
2008,03,28,15,01,4.00
2008,03,28,15,02,3.90
2008,03,28,15,03,3.90
2008,03,28,15,04,3.80
2008,03,28,15,05,3.80
2008,03,28,15,06,3.80
2008,03,28,15,07,3.70
2008,03,28,15,08,3.70
2008,03,28,15,09,3.80
2008,03,28,15,10,3.80
2008,03,28,15,11,3.80
2008,03,28,15,12,3.90
2008,03,28,15,13,3.80
2008,03,28,15,14,3.80
2008,03,28,15,15,3.80
2008,03,28,15,16,3.80
2008,03,28,15,17,3.70
2008,03,28,15,18,3.70
2008,03,28,15,19,3.60
2008,03,28,15,20,3.60
2008,03,28,15,21,3.60
2008,03,28,15,22,3.60
2008,03,28,15,23,3.60
2008,03,28,15,24,3.60
2008,03,28,15,25,3.50
2008,03,28,15,26,3.40
2008,03,28,15,27,3.40
2008,03,28,15,28,3.40
2008,03,28,15,29,3.40
2008,03,28,15,30,3.40
2008,03,28,15,31,3.40
2008,03,28,15,32,3.40
2008,03,28,15,33,3.30
2008,03,28,15,34,3.30
2008,03,28,15,35,3.30
2008,03,28,15,36,3.30
2008,03,28,15,37,3.30
2008,03,28,15,38,3.30
2008,03,28,15,39,3.30
2008,03,28,15,40,3.30
2008,03,28,15,41,3.30
2008,03,28,15,42,3.30
2008,03,28,15,43,3.30
2008,03,28,15,44,3.30
2008,03,28,15,45,3.30
2008,03,28,15,46,3.30
2008,03,28,15,47,3.30
2008,03,28,15,48,3.30
2008,03,28,15,49,3.30
2008,03,28,15,50,3.20
2008,03,28,15,51,3.20
2008,03,28,15,52,3.20
2008,03,28,15,53,3.20
2008,03,28,15,54,3.20
2008,03,28,15,55,3.20
2008,03,28,15,56,3.20
2008,03,28,15,57,3.20
2008,03,28,15,58,3.20
2008,03,28,15,59,3.30
2008,03,28,16,00,3.30
2008,03,28,16,01,3.30
2008,03,28,16,02,3.20
2008,03,28,16,03,3.20
2008,03,28,16,04,3.20
2008,03,28,16,05,3.10
2008,03,28,16,06,3.10
2008,03,28,16,07,3.10
2008,03,28,16,08,3.10
2008,03,28,16,09,3.00
2008,03,28,16,10,3.00
2008,03,28,16,11,3.00
2008,03,28,16,12,2.90
2008,03,28,16,13,2.90
2008,03,28,16,14,2.90
2008,03,28,16,15,2.80
2008,03,28,16,16,2.80
2008,03,28,16,17,2.80
2008,03,28,16,18,2.80
2008,03,28,16,19,2.80
2008,03,28,16,20,2.80
2008,03,28,16,21,2.80
2008,03,28,16,22,2.80
2008,03,28,16,23,2.80
2008,03,28,16,24,2.80
2008,03,28,16,25,2.70
2008,03,28,16,26,2.70
2008,03,28,16,27,2.70
2008,03,28,16,28,2.70
2008,03,28,16,29,2.70
2008,03,28,16,30,2.70
2008,03,28,16,31,2.60
2008,03,28,16,32,2.60
2008,03,28,16,33,2.60
2008,03,28,16,34,2.60
2008,03,28,16,35,2.50
2008,03,28,16,36,2.50
2008,03,28,16,37,2.40
2008,03,28,16,38,2.40
2008,03,28,16,39,2.50
2008,03,28,16,40,2.50
2008,03,28,16,41,2.60
2008,03,28,16,42,2.60
2008,03,28,16,43,2.60
2008,03,28,16,44,2.50
2008,03,28,16,45,2.60
2008,03,28,16,46,2.60
2008,03,28,16,47,2.60
2008,03,28,16,48,2.60
2008,03,28,16,49,2.60
2008,03,28,16,50,2.60
2008,03,28,16,51,2.60
2008,03,28,16,52,2.50
2008,03,28,16,53,2.50
2008,03,28,16,54,2.50
2008,03,28,16,55,2.60
2008,03,28,16,56,2.60
2008,03,28,16,57,2.60
2008,03,28,16,58,2.60
2008,03,28,16,59,2.60
2008,03,28,17,00,2.60
2008,03,28,17,01,2.60
2008,03,28,17,02,2.60
2008,03,28,17,03,2.60
2008,03,28,17,04,2.60
2008,03,28,17,05,2.50
2008,03,28,17,06,2.50
2008,03,28,17,07,2.50
2008,03,28,17,08,2.40
2008,03,28,17,09,2.40
2008,03,28,17,10,2.40
2008,03,28,17,11,2.40
2008,03,28,17,12,2.40
2008,03,28,17,13,2.50
2008,03,28,17,14,2.50
2008,03,28,17,15,2.40
2008,03,28,17,16,2.40
2008,03,28,17,17,2.30
2008,03,28,17,18,2.30
2008,03,28,17,19,2.30
2008,03,28,17,20,2.20
2008,03,28,17,21,2.20
2008,03,28,17,22,2.20
2008,03,28,17,23,2.20
2008,03,28,17,24,2.10
2008,03,28,17,25,2.10
2008,03,28,17,26,2.10
2008,03,28,17,27,2.10
2008,03,28,17,28,2.10
2008,03,28,17,29,2.10
2008,03,28,17,30,2.00
2008,03,28,17,31,2.00
2008,03,28,17,32,2.00
2008,03,28,17,33,2.00
2008,03,28,17,34,2.00
2008,03,28,17,35,2.00
2008,03,28,17,36,1.90
2008,03,28,17,37,1.90
2008,03,28,17,38,1.90
2008,03,28,17,39,1.90
2008,03,28,17,40,1.90
2008,03,28,17,41,1.90
2008,03,28,17,42,1.90
2008,03,28,17,43,1.80
2008,03,28,17,44,1.80
2008,03,28,17,45,1.80
2008,03,28,17,46,1.80
2008,03,28,17,47,1.80
2008,03,28,17,48,1.70
2008,03,28,17,49,1.70
2008,03,28,17,50,1.70
2008,03,28,17,51,1.70
2008,03,28,17,52,1.70
2008,03,28,17,53,1.70
2008,03,28,17,54,1.70
2008,03,28,17,55,1.70
2008,03,28,17,56,1.70
2008,03,28,17,57,1.70
2008,03,28,17,58,1.70
2008,03,28,17,59,1.70
2008,03,28,18,00,1.70
2008,03,28,18,01,1.70
2008,03,28,18,02,1.70
2008,03,28,18,03,1.70
2008,03,28,18,04,1.70
2008,03,28,18,05,1.70
2008,03,28,18,06,1.70